星链-11330 (STARLINK-11330)

导读

STARLINK-11330是美国太空探索技术公司(SpaceX)星链(Starlink)星座的卫星成员,于2024年11月18日发射升空,运行于近地轨道。作为星链计划的一部分,它主要为全球范围提供高速、低时延的卫星宽带互联网服务,同时星链星座也具备潜在军事应用价值。截至当前,星链已部署数千颗活跃卫星,是全球规模最大的卫星星座,STARLINK-11330的入列进一步扩充了星座组网容量。

Basic Information
目录编号:
62011
目录名称:
STARLINK-11330
国际标识:
2024-213D
轨道中心:
EARTH
卫星名称:
星链-11330
卫星全名:
星链-11330 (STARLINK-11330)
卫星状态:
在轨 (已飞行662 天)
发射日期:
2024-11-18 UTC
国别 :
美国 (US)
星等 :
--
This satellite is enrolled in the Space Conjunction Data Service (SCDS) and the current flight risk assessment level is: No High Risk
Orbit Information
数据来源 国际轨道数据
星历时间: 2026-09-11T12:02:15+0800
9小时前
查看轨道信息
半长轴: 6737.419km
偏心率: 0.0001617
轨道倾角: 53.161°
近地点辐角 73.570°
升交点赤经 207.145°
平近点角 286.549°
近地点: 358.192km
远地点: 360.372km
周期: 91.728分钟
每日圈数: 15.698655
Detailed Information
固有亮度:
5
最大亮度:
2.5
卫星平台:
Starlink V1.0
覆盖范围:
全球
运营商:
太空探索技术公司
运营商所在国:
美国
制造商(研发单位):
太空探索技术公司
制造商所在国:
美国
使用方式:
暂无
Satellite Introduction
Starlink 计划是 SpaceX 推出的全球卫星互联网项目,通过发射低轨道卫星,为全球尤其是偏远地区提供高速、低延迟的互联网服务。自 2019 年起,Starlink 已部署数千颗卫星,旨在缩小全球数字鸿沟,推动互联网普及。该项目还为军事、航空等行业提供通信支持,带来广泛经济效益。
2D Orbit Map
3D Orbit Map
Orbit Altitude Analysis Chart
Orbit Inclination Analysis Chart
Orbit Comprehensive Analysis Chart
View Comprehensive Chart
Conjunction Data List
Event ID Objects TCA Miss Dist (km) Collision Risk Probability Collision Risk Index (CRI) Action
CDM_260911-235806-201106-407021
2026-09-11T
23:58:59+0000
2.056 km
极远距离
2.217418E-6 低风险 0.42
CDM_260911-223106-201106-259821
2026-09-11T
22:31:15+0000
2.608 km
极远距离
1.293723E-6 低风险 0.37
Miss Distance Evolution Trend with All Objects
Collision Probability Evolution Trend with All Objects